Location: Azul
(36.7830°S, 59.8500°W)
Time: 21:48:58
(UTC-03:00)

ISS - Pass Details

Date: 29 March 2017
Orbit: 399 x 409 km, 51.6° (Epoch: 30 March)

Event Time Altitude Azimuth Distance (km) Brightness Sun altitude
Rises 06:30:48 0° 359° (N) 2,328 0.0 -8.8°
Reaches altitude 10° 06:34:20 10° 40° (NE) 1,478 -0.4 -8.1°
Maximum altitude 06:35:07 11° 54° (NE) 1,442 -0.2 -7.9°
Drops below altitude 10° 06:35:55 10° 67° (ENE) 1,482 0.3 -7.8°
Sets 06:39:29 0° 107° (ESE) 2,353 1.8 -7.1°
